Gallup, NM

6:50 AM MDT on May 30, 2017 (GMT -0600)
Gallup Municipal

Weather History for KGUP - August, 2014

Change the Weather History Date:

Friday, August 22, 2014

  Actual Average Record
Temperature  
Mean Temperature 64 °F -  
Max Temperature 75 °F 82 °F 91 °F (1991)
Min Temperature 53 °F 50 °F 40 °F (1979)
Degree Days  
Heating Degree Days 1    
Growing Degree Days 14 (Base 50)    
Moisture  
Dew Point 48 °F    
Average Humidity 63    
Maximum Humidity 97    
Minimum Humidity 26    
Precipitation  
Precipitation 0.05 in - - ()
Sea Level Pressure  
Sea Level Pressure 29.82 in    
Wind  
Wind Speed 6 mph (SSW)    
Max Wind Speed 18 mph    
Max Gust Speed 21 mph    
Visibility 10 miles    
Events Rain    
Averages and records for this station are not official NWS values.
T = Trace of Precipitation, MM = Missing Value Source: NWS Daily Summary

Daily Weather History Graph

Daily Weather History Graph

Search for Another Location

Airport or City:

Trip Planner

Search our weather history database for the weather conditions in past years. The results will help you decide how hot, cold, wet, or windy it might be!

Date:

Astronomy

Aug. 22, 2014 Rise Set
Actual Time 6:39 AM MDT 7:55 PM MDT
Civil Twilight 6:13 AM MDT 8:22 PM MDT
Nautical Twilight 5:41 AM MDT 8:53 PM MDT
Astronomical Twilight 5:08 AM MDT 9:26 PM MDT
Moon 4:07 AM MDT (8/22) 6:04 PM MDT (8/22)
Length of Visible Light 14h 08m
Length of Day
13h 15m
Waning Crescent, 7% of the Moon is Illuminated
Aug 22
Waning Crescent
Aug 25
New
Sep 2
First Quarter
Sep 8
Full
Sep 15
Last Quarter

Hourly Weather History & Observations

Time (MDT) Temp. Dew Point Humidity Pressure Visibility Wind Dir Wind Speed Gust Speed Precip Events Conditions
12:53 AM 57.0 °F 54.0 °F 89% 29.81 in 10.0 mi SSE 4.6 mph - 0.04 in Rain Light Rain
1:53 AM 57.0 °F 54.0 °F 89% 29.82 in 10.0 mi WSW 4.6 mph - 0.00 in   Overcast
3:53 AM 55.9 °F 54.0 °F 93% 29.81 in 10.0 mi Calm Calm - N/A   Mostly Cloudy
4:53 AM 55.9 °F 54.0 °F 93% 29.82 in 10.0 mi Calm Calm - N/A   Overcast
5:53 AM 54.0 °F 53.1 °F 97% 29.84 in 10.0 mi Calm Calm - N/A   Mostly Cloudy
6:53 AM 53.1 °F 52.0 °F 96% 29.91 in 7.0 mi Calm Calm - N/A   Partly Cloudy
7:53 AM 55.0 °F 52.0 °F 89% 29.90 in 10.0 mi South 5.8 mph - N/A   Overcast
8:53 AM 57.0 °F 53.1 °F 87% 29.92 in 10.0 mi Calm Calm - N/A   Clear
10:53 AM 64.9 °F 53.1 °F 65% 29.87 in 10.0 mi South 5.8 mph - N/A   Overcast
11:53 AM 66.9 °F 52.0 °F 59% 29.87 in 10.0 mi SSE 5.8 mph - N/A   Mostly Cloudy
12:53 PM 70.0 °F 48.9 °F 47% 29.82 in 10.0 mi SW 12.7 mph - N/A   Scattered Clouds
1:53 PM 66.9 °F 43.0 °F 42% 29.84 in 10.0 mi SW 13.8 mph - 0.01 in Rain Light Rain
3:53 PM 73.9 °F 43.0 °F 33% 29.75 in 10.0 mi West 12.7 mph 18.4 mph N/A   Mostly Cloudy
4:53 PM 75.0 °F 37.9 °F 26% 29.73 in 10.0 mi SW 18.4 mph - N/A   Clear
5:53 PM 73.0 °F 41.0 °F 31% 29.76 in 10.0 mi WSW 18.4 mph - N/A   Scattered Clouds
6:53 PM 71.1 °F 42.1 °F 35% 29.79 in 10.0 mi SW 13.8 mph 20.7 mph N/A   Scattered Clouds
7:53 PM 68.0 °F 42.1 °F 39% 29.80 in 10.0 mi SW 8.1 mph - N/A   Mostly Cloudy
8:53 PM 66.9 °F 44.1 °F 44% 29.81 in 10.0 mi SSW 6.9 mph - N/A   Overcast
9:53 PM 64.9 °F 45.0 °F 48% 29.80 in 10.0 mi SSW 8.1 mph - N/A   Overcast
10:53 PM 61.0 °F 46.0 °F 58% 29.81 in 10.0 mi SW 5.8 mph - N/A   Partly Cloudy
11:53 PM 59.0 °F 46.9 °F 64% 29.81 in 10.0 mi SSW 6.9 mph - N/A   Partly Cloudy